| time (UTC) | temp F | wind direction | speed MPH | gust MPH | rain 1hr in | rain 24hr in | rain mn in | humidity % | barometer mb |
| 20260504140701 | 62 | 287 | 3.0 | 9.0 | 0.00 | 0.00 | 0.00 | 50 | 1015.9 |
| 20260504130655 | 56 | 309 | 1.0 | 4.0 | 0.00 | 0.00 | 0.00 | 57 | 1015.9 |
| 20260504110610 | 38 | 288 | 0.0 | 0.0 | 0.00 | 0.00 | 0.00 | 84 | 1015.9 |
| 20260504100502 | 35 | 288 | 0.0 | 0.0 | 0.00 | 0.00 | 0.00 | 85 | 1015.9 |
| 20260504081345 | 34 | 288 | 0.0 | 0.0 | 0.00 | 0.00 | 0.00 | 88 | 1016.3 |
| 20260504080311 | 35 | 288 | 0.0 | 0.0 | 0.00 | 0.00 | 0.00 | 88 | 1015.9 |
| 20260504070232 | 36 | 288 | 0.0 | 0.0 | 0.00 | 0.00 | 0.00 | 88 | 1015.9 |
| 20260504060224 | 38 | 288 | 0.0 | 2.0 | 0.00 | 0.00 | 0.00 | 88 | 1015.9 |
| 20260504050147 | 39 | 231 | 0.0 | 0.0 | 0.00 | 0.00 | 0.00 | 86 | 1016.3 |
| 20260504045145 | 39 | 231 | 0.0 | 0.0 | 0.00 | 0.00 | 0.00 | 86 | 1016.3 |
| 20260504044145 | 39 | 231 | 0.0 | 0.0 | 0.00 | 0.00 | 0.00 | 85 | 1016.3 |
| 20260504043144 | 39 | 231 | 0.0 | 0.0 | 0.00 | 0.00 | 0.00 | 85 | 1016.3 |
| 20260504042143 | 39 | 231 | 0.0 | 0.0 | 0.00 | 0.00 | 0.00 | 84 | 1016.3 |
| 20260504041142 | 40 | 231 | 0.0 | 0.0 | 0.00 | 0.00 | 0.00 | 84 | 1016.3 |
| 20260504040141 | 40 | 231 | 0.0 | 0.0 | 0.00 | 0.00 | 0.00 | 83 | 1016.3 |
| 20260504035140 | 40 | 231 | 0.0 | 0.0 | 0.00 | 0.00 | 0.00 | 83 | 1015.9 |
| 20260504034138 | 40 | 231 | 0.0 | 0.0 | 0.00 | 0.00 | 0.00 | 81 | 1015.9 |
| 20260504033136 | 41 | 231 | 0.0 | 0.0 | 0.00 | 0.00 | 0.00 | 81 | 1015.9 |
| 20260504032135 | 41 | 231 | 0.0 | 0.0 | 0.00 | 0.00 | 0.00 | 80 | 1015.6 |
| 20260504031134 | 42 | 231 | 0.0 | 0.0 | 0.00 | 0.00 | 0.00 | 79 | 1016.3 |
| 20260504030133 | 42 | 231 | 0.0 | 0.0 | 0.00 | 0.00 | 0.00 | 78 | 1016.3 |
| 20260504025132 | 42 | 231 | 0.0 | 0.0 | 0.00 | 0.00 | 0.00 | 77 | 1015.9 |
| 20260504024131 | 42 | 231 | 0.0 | 0.0 | 0.00 | 0.00 | 0.00 | 75 | 1015.9 |
| 20260504023130 | 43 | 231 | 0.0 | 0.0 | 0.00 | 0.00 | 0.00 | 74 | 1015.9 |
| 20260504022129 | 44 | 231 | 0.0 | 0.0 | 0.00 | 0.00 | 0.00 | 73 | 1015.9 |
| 20260504021128 | 45 | 231 | 0.0 | 0.0 | 0.00 | 0.00 | 0.00 | 74 | 1015.6 |
| 20260504020127 | 45 | 231 | 0.0 | 1.0 | 0.00 | 0.00 | 0.00 | 73 | 1015.6 |
| 20260504015127 | 46 | 231 | 0.0 | 1.0 | 0.00 | 0.00 | 0.00 | 70 | 1015.6 |
| 20260504014125 | 47 | 231 | 0.0 | 0.0 | 0.00 | 0.00 | 0.00 | 68 | 1015.2 |
| 20260504013124 | 48 | 231 | 0.0 | 0.0 | 0.00 | 0.00 | 0.00 | 64 | 1015.2 |
| 20260504012122 | 49 | 231 | 0.0 | 0.0 | 0.00 | 0.00 | 0.00 | 61 | 1015.2 |
| 20260504011121 | 49 | 231 | 0.0 | 0.0 | 0.00 | 0.00 | 0.00 | 57 | 1014.9 |
| 20260504010121 | 51 | 231 | 0.0 | 0.0 | 0.00 | 0.00 | 0.00 | 53 | 1014.9 |
| 20260504005119 | 52 | 231 | 0.0 | 0.0 | 0.00 | 0.00 | 0.00 | 51 | 1014.9 |
| 20260504004118 | 54 | 231 | 0.0 | 0.0 | 0.00 | 0.00 | 0.00 | 47 | 1014.9 |
| 20260504003046 | 56 | 231 | 0.0 | 0.0 | 0.00 | 0.00 | 0.00 | 44 | 1014.9 |
| 20260504002045 | 57 | 231 | 0.0 | 1.0 | 0.00 | 0.00 | 0.00 | 42 | 1014.9 |
| 20260504001044 | 59 | 231 | 0.0 | 2.0 | 0.00 | 0.00 | 0.00 | 38 | 1014.9 |
| 20260504000043 | 62 | 232 | 0.0 | 3.0 | 0.00 | 0.00 | 0.00 | 35 | 1014.6 |
| 20260503235011 | 64 | 211 | 1.0 | 2.0 | 0.00 | 0.00 | 0.00 | 33 | 1014.6 |
| 20260503234010 | 67 | 204 | 1.0 | 1.0 | 0.00 | 0.00 | 0.00 | 30 | 1014.6 |
| 20260503232938 | 67 | 174 | 1.0 | 1.0 | 0.00 | 0.00 | 0.00 | 30 | 1014.2 |
| 20260503231937 | 67 | 144 | 0.0 | 4.0 | 0.00 | 0.00 | 0.00 | 30 | 1014.6 |
| 20260503230936 | 66 | 196 | 1.0 | 7.0 | 0.00 | 0.00 | 0.00 | 29 | 1014.6 |
| 20260503225935 | 67 | 229 | 2.0 | 7.0 | 0.00 | 0.00 | 0.00 | 28 | 1014.6 |
| 20260503224934 | 68 | 239 | 2.0 | 6.0 | 0.00 | 0.00 | 0.00 | 28 | 1014.6 |
| 20260503223831 | 68 | 210 | 2.0 | 6.0 | 0.00 | 0.00 | 0.00 | 29 | 1014.6 |
| 20260503222758 | 67 | 266 | 1.0 | 7.0 | 0.00 | 0.00 | 0.00 | 29 | 1014.6 |
| 20260503221757 | 67 | 244 | 2.0 | 10.0 | 0.00 | 0.00 | 0.00 | 28 | 1014.6 |
| 20260503220756 | 68 | 216 | 2.0 | 10.0 | 0.00 | 0.00 | 0.00 | 27 | 1014.9 |
| 20260503215755 | 68 | 200 | 3.0 | 6.0 | 0.00 | 0.00 | 0.00 | 27 | 1014.9 |
| 20260503214754 | 68 | 267 | 2.0 | 6.0 | 0.00 | 0.00 | 0.00 | 25 | 1014.9 |
| 20260503213753 | 67 | 267 | 1.0 | 8.0 | 0.00 | 0.00 | 0.00 | 27 | 1014.9 |
| 20260503212753 | 66 | 267 | 3.0 | 10.0 | 0.00 | 0.00 | 0.00 | 26 | 1014.9 |
| 20260503211751 | 66 | 288 | 5.0 | 10.0 | 0.00 | 0.00 | 0.00 | 24 | 1015.2 |
| 20260503210749 | 66 | 292 | 4.0 | 8.0 | 0.00 | 0.00 | 0.00 | 25 | 1015.2 |
| 20260503205748 | 66 | 324 | 3.0 | 6.0 | 0.00 | 0.00 | 0.00 | 27 | 1015.2 |
| 20260503204644 | 66 | 286 | 3.0 | 10.0 | 0.00 | 0.00 | 0.00 | 28 | 1015.2 |
| 20260503203642 | 66 | 230 | 2.0 | 10.0 | 0.00 | 0.00 | 0.00 | 28 | 1015.6 |
| 20260503202641 | 65 | 295 | 1.0 | 8.0 | 0.00 | 0.00 | 0.00 | 28 | 1015.6 |
| 20260503201639 | 65 | 282 | 3.0 | 8.0 | 0.00 | 0.00 | 0.00 | 29 | 1015.9 |
| 20260503200637 | 65 | 287 | 3.0 | 10.0 | 0.00 | 0.00 | 0.00 | 27 | 1015.9 |
| 20260503195636 | 65 | 290 | 3.0 | 10.0 | 0.00 | 0.00 | 0.00 | 29 | 1015.9 |
| 20260503194636 | 65 | 295 | 2.0 | 10.0 | 0.00 | 0.00 | 0.00 | 25 | 1015.9 |
| 20260503193635 | 65 | 227 | 4.0 | 10.0 | 0.00 | 0.00 | 0.00 | 28 | 1016.3 |
| 20260503192634 | 65 | 269 | 3.0 | 10.0 | 0.00 | 0.00 | 0.00 | 27 | 1016.3 |
| 20260503191631 | 64 | 194 | 2.0 | 9.0 | 0.00 | 0.00 | 0.00 | 28 | 1016.3 |
| 20260503190631 | 64 | 232 | 4.0 | 10.0 | 0.00 | 0.00 | 0.00 | 31 | 1016.6 |
| 20260503185559 | 64 | 298 | 3.0 | 10.0 | 0.00 | 0.00 | 0.00 | 29 | 1016.6 |
| 20260503184558 | 64 | 216 | 3.0 | 8.0 | 0.00 | 0.00 | 0.00 | 30 | 1016.9 |
| 20260503183556 | 63 | 121 | 2.0 | 8.0 | 0.00 | 0.00 | 0.00 | 31 | 1016.9 |
| 20260503182524 | 63 | 272 | 4.0 | 10.0 | 0.00 | 0.00 | 0.00 | 30 | 1017.3 |
| 20260503181523 | 63 | 320 | 2.0 | 10.0 | 0.00 | 0.00 | 0.00 | 29 | 1017.3 |
| 20260503180451 | 63 | 276 | 2.0 | 8.0 | 0.00 | 0.00 | 0.00 | 31 | 1017.6 |
| 20260503175449 | 63 | 246 | 4.0 | 8.0 | 0.00 | 0.00 | 0.00 | 31 | 1017.6 |
| 20260503174448 | 63 | 325 | 2.0 | 5.0 | 0.00 | 0.00 | 0.00 | 30 | 1017.6 |
| 20260503173447 | 62 | 252 | 2.0 | 9.0 | 0.00 | 0.00 | 0.00 | 31 | 1017.9 |
| 20260503172446 | 60 | 216 | 1.0 | 9.0 | 0.00 | 0.00 | 0.00 | 34 | 1017.9 |
| 20260503171445 | 60 | 289 | 4.0 | 9.0 | 0.00 | 0.00 | 0.00 | 33 | 1017.9 |
| 20260503170444 | 60 | 19 | 2.0 | 9.0 | 0.00 | 0.00 | 0.00 | 36 | 1018.3 |
| 20260503150329 | 54 | 317 | 3.0 | 8.0 | 0.00 | 0.00 | 0.00 | 43 | 1019.6 |